Miscellaneous Local Product
Issued by NWS Hastings, NE

Home | Current Version | Previous Version | Graphics & Text | Print | Product List | Glossary On
Versions: 1 2 3 4 5 6 7 8 9 10 11 12 13 14 15 16 17 18 19 20 21 22 23 24 25 26 27 28 29 30 31 32 33 34 35 36 37 38 39 40 41 42 43 44 45 46 47 48 49 50
000
AXUS43 KGID 291002
MISGRI

GID CWA HOURLY WEATHER ROUNDUP
NATIONAL WEATHER SERVICE HASTINGS NE
500 AM CDT MON SEP 29 2014

NOTE: "FAIR" INDICATES FEW OR NO CLOUDS BELOW 12,000 FEET WITH NO
SIGNIFICANT WEATHER AND/OR OBSTRUCTIONS TO VISIBILITY.

...SOUTH CENTRAL NEBRASKA...

CITY           SKY/WX    TMP DP  RH WIND       PRES   REMARKS
GRAND ISLAND   CLEAR     61  54  77 S7        30.06S
HASTINGS       CLEAR     61  53  75 S6        30.06F
KEARNEY        CLEAR     55  52  88 CALM      30.07S
ORD            CLEAR     54  53  97 CALM      30.05S
YORK           CLEAR     57  55  94 SW6       30.07R
AURORA         CLEAR     61  55  80 SW7       30.06S
LEXINGTON      CLEAR     56  54  92 SE5       30.06S
HOLDREGE       CLEAR     56  52  85 CALM      30.06F
HEBRON         CLEAR     58  53  82 CALM      30.06S

...NEBRASKA PANHANDLE...

CITY           SKY/WX    TMP DP  RH WIND       PRES   REMARKS
CHADRON        CLOUDY    53  53 100 NE14G22   30.04F
ALLIANCE       MOCLDY    55  53  93 E15       30.01F
SCOTTSBLUFF    CLOUDY    56  56 100 SE3       30.01F
SIDNEY         MOCLDY    58  53  84 SE8       30.01F

...WESTERN AND NORTH CENTRAL NEBRASKA...

CITY           SKY/WX    TMP DP  RH WIND       PRES   REMARKS
VALENTINE      FOG       53  52  96 NE10      30.10S VSB 1/2
AINSWORTH      MOCLDY    52  52  99 NW3       30.08S
ONEILL         CLEAR     61  60  97 NE8       30.07S
BROKEN BOW     CLEAR     53  50  89 CALM      30.06F
IMPERIAL       MOCLDY    61  53  75 SE13      30.02S
NORTH PLATTE   CLEAR     62  53  72 SE10      30.04F
MCCOOK         CLEAR     61  53  75 S9        30.04F

...EASTERN NEBRASKA...

CITY           SKY/WX    TMP DP  RH WIND       PRES   REMARKS
NORFOLK        CLEAR     61  57  87 N5        30.06R
SO SIOUX CITY  CLOUDY    68  61  78 E3        30.06F
TEKAMAH        CLEAR     58  56  93 E3        30.05R
COLUMBUS       CLEAR     55  52  88 CALM      30.07S
ALBION         CLOUDY    64  55  73 CALM      30.06S
OMAHA EPPLEY   CLEAR     63  56  78 SE5       30.06R
OFFUTT AFB     CLEAR     56  56 100 E2        30.05S
MILLARD        CLEAR     59  58  96 CALM      30.05S FOG
LINCOLN        CLEAR     61  55  81 CALM      30.07R
NEBRASKA CITY  CLEAR     58  53  81 SW6       30.06S
BEATRICE       CLEAR     56  54  94 CALM      30.06S
FALLS CITY     CLEAR     56  54  93 SE3       30.05S

...NORTHERN KANSAS...

CITY           SKY/WX    TMP DP  RH WIND       PRES   REMARKS
GOODLAND       PTCLDY    60  53  77 SE15      30.04F
HILL CITY      CLOUDY    66  53  63 VRB3      30.06S
NORTON         CLOUDY    64  48  55 CALM      30.05S
PHILLIPSBURG   CLEAR     57  54  88 NE6       30.06S
SMITH CENTER   CLEAR     57  54  88 E9        30.07S
BELOIT         CLEAR     57  54  88 CALM      30.06S
HAYS           MOCLDY    61  52  72 SE5       30.06F
RUSSELL        PTCLDY    62  56  80 S7        30.05S
CONCORDIA      CLEAR     64  58  80 S10       30.06F
SALINA         CLEAR     59  55  87 CALM      30.07S
TOPEKA         FOG       56  54  93 CALM      30.07S VSB 1/2



USA.gov is the U.S. government's official web portal to all federal, state and local government web resources and services.